Simultaneous Nadir Overpasses (SNOs) Predictions

Prediction of SNOs between GOES-16 and METOP-C Satellite Orbit:

Table of predicted SNOs for the next 14.0 days since TLE Epoch: 10/15/2022
Index Date Time (GOES-16) GOES-16 Lat,Lon METOP-C Lat,Lon Distance(km) Time Diff (sec)
1 10/16/2022 14:41:49 -0.07, -75.21 0.58, -78.18 338.24 80
2 10/17/2022 14:23:50 -0.07, -75.21 -0.53, -73.19 231.14 80
3 10/19/2022 02:42:52 0.06, -75.20 -0.50, -77.78 294.65 80
4 10/20/2022 02:22:14 0.06, -75.20 0.61, -72.79 275.15 80
5 10/21/2022 14:38:26 -0.06, -75.24 0.40, -77.35 240.47 80
6 10/22/2022 14:20:28 -0.06, -75.25 -0.72, -72.36 329.71 80
7 10/24/2022 02:39:29 0.06, -75.25 -0.35, -76.95 194.73 80
8 10/25/2022 02:16:11 0.06, -75.26 0.78, -71.96 375.74 80
9 10/26/2022 14:35:03 -0.06, -75.30 0.24, -76.52 139.30 80
10 10/27/2022 14:17:04 -0.06, -75.32 -0.88, -71.53 431.24 80
11 10/29/2022 02:36:06 0.05, -75.31 -0.16, -76.12 92.78 80
